owner,sensor,date,latitude,longitude,sea_surface_height_above_sea_level,qcFlag 
TCOON,ioos:station:TCOON:518:1,2014-11-01T00:18:00Z,29.5150,-94.5133,1.169,1111122 
TCOON,ioos:station:TCOON:518:1,2014-11-01T01:18:00Z,29.5150,-94.5133,1.121,1111122 
TCOON,ioos:station:TCOON:518:1,2014-11-01T02:18:00Z,29.5150,-94.5133,1.095,1111122 
TCOON,ioos:station:TCOON:518:1,2014-11-01T03:18:00Z,29.5150,-94.5133,1.114,1111122 
TCOON,ioos:station:TCOON:518:1,2014-11-01T04:18:00Z,29.5150,-94.5133,1.121,1111122 
TCOON,ioos:station:TCOON:518:1,2014-11-01T05:12:00Z,29.5150,-94.5133,1.135,1111122 
TCOON,ioos:station:TCOON:518:1,2014-11-01T06:54:00Z,29.5150,-94.5133,1.255,1111122 
TCOON,ioos:station:TCOON:518:1,2014-11-01T07:12:00Z,29.5150,-94.5133,1.259,1111122 
TCOON,ioos:station:TCOON:518:1,2014-11-01T08:12:00Z,29.5150,-94.5133,1.254,1111122 
TCOON,ioos:station:TCOON:518:1,2014-11-01T09:12:00Z,29.5150,-94.5133,1.291,1111122 
TCOON,ioos:station:TCOON:518:1,2014-11-01T10:12:00Z,29.5150,-94.5133,1.328,1111122 
TCOON,ioos:station:TCOON:518:1,2014-11-01T11:12:00Z,29.5150,-94.5133,1.324,1111122 
TCOON,ioos:station:TCOON:518:1,2014-11-01T12:12:00Z,29.5150,-94.5133,1.313,1111122 
TCOON,ioos:station:TCOON:518:1,2014-11-01T13:12:00Z,29.5150,-94.5133,1.316,1111122 
TCOON,ioos:station:TCOON:518:1,2014-11-01T14:12:00Z,29.5150,-94.5133,1.302,1111122 
TCOON,ioos:station:TCOON:518:1,2014-11-01T15:12:00Z,29.5150,-94.5133,1.245,1111122 
TCOON,ioos:station:TCOON:518:1,2014-11-01T16:12:00Z,29.5150,-94.5133,1.227,1111122 
TCOON,ioos:station:TCOON:518:1,2014-11-01T17:12:00Z,29.5150,-94.5133,1.29,1111122 
TCOON,ioos:station:TCOON:518:1,2014-11-01T18:12:00Z,29.5150,-94.5133,1.337,1111122 
TCOON,ioos:station:TCOON:518:1,2014-11-01T19:12:00Z,29.5150,-94.5133,1.404,1111122 
TCOON,ioos:station:TCOON:518:1,2014-11-01T20:18:00Z,29.5150,-94.5133,1.44,1111122 
TCOON,ioos:station:TCOON:518:1,2014-11-01T21:18:00Z,29.5150,-94.5133,1.471,1111122 
TCOON,ioos:station:TCOON:518:1,2014-11-01T22:12:00Z,29.5150,-94.5133,1.424,1111122 
TCOON,ioos:station:TCOON:518:1,2014-11-01T23:12:00Z,29.5150,-94.5133,1.371,1111122 
TCOON,ioos:station:TCOON:518:1,2014-11-02T00:12:00Z,29.5150,-94.5133,1.298,1111122 
TCOON,ioos:station:TCOON:518:1,2014-11-02T01:18:00Z,29.5150,-94.5133,1.247,1111122 
TCOON,ioos:station:TCOON:518:1,2014-11-02T02:12:00Z,29.5150,-94.5133,1.221,1111122 
TCOON,ioos:station:TCOON:518:1,2014-11-02T03:12:00Z,29.5150,-94.5133,1.203,1111122 
TCOON,ioos:station:TCOON:518:1,2014-11-02T04:18:00Z,29.5150,-94.5133,1.198,1111122 
TCOON,ioos:station:TCOON:518:1,2014-11-02T05:12:00Z,29.5150,-94.5133,1.242,1111122 
TCOON,ioos:station:TCOON:518:1,2014-11-02T06:30:00Z,29.5150,-94.5133,1.337,1111122 
TCOON,ioos:station:TCOON:518:1,2014-11-02T07:12:00Z,29.5150,-94.5133,1.365,1111122 
TCOON,ioos:station:TCOON:518:1,2014-11-02T08:12:00Z,29.5150,-94.5133,1.359,1111122 
TCOON,ioos:station:TCOON:518:1,2014-11-02T09:12:00Z,29.5150,-94.5133,1.404,1111122 
TCOON,ioos:station:TCOON:518:1,2014-11-02T10:12:00Z,29.5150,-94.5133,1.362,1111122 
TCOON,ioos:station:TCOON:518:1,2014-11-02T11:12:00Z,29.5150,-94.5133,1.323,1111122 
TCOON,ioos:station:TCOON:518:1,2014-11-02T12:12:00Z,29.5150,-94.5133,1.32,1111122 
TCOON,ioos:station:TCOON:518:1,2014-11-02T13:12:00Z,29.5150,-94.5133,1.32,1111122 
TCOON,ioos:station:TCOON:518:1,2014-11-02T14:12:00Z,29.5150,-94.5133,1.311,1111122 
TCOON,ioos:station:TCOON:518:1,2014-11-02T15:12:00Z,29.5150,-94.5133,1.267,1111122 
TCOON,ioos:station:TCOON:518:1,2014-11-02T16:12:00Z,29.5150,-94.5133,1.268,1111122 
TCOON,ioos:station:TCOON:518:1,2014-11-02T17:12:00Z,29.5150,-94.5133,1.299,1111122 
TCOON,ioos:station:TCOON:518:1,2014-11-02T18:12:00Z,29.5150,-94.5133,1.354,1111122 
TCOON,ioos:station:TCOON:518:1,2014-11-02T19:12:00Z,29.5150,-94.5133,1.393,1111122 
TCOON,ioos:station:TCOON:518:1,2014-11-02T20:12:00Z,29.5150,-94.5133,1.424,1111122 
TCOON,ioos:station:TCOON:518:1,2014-11-02T21:18:00Z,29.5150,-94.5133,1.437,1111122 
TCOON,ioos:station:TCOON:518:1,2014-11-02T22:12:00Z,29.5150,-94.5133,1.42,1111122 
TCOON,ioos:station:TCOON:518:1,2014-11-02T23:12:00Z,29.5150,-94.5133,1.397,1111122 
TCOON,ioos:station:TCOON:518:1,2014-11-03T00:12:00Z,29.5150,-94.5133,1.365,1111122 
TCOON,ioos:station:TCOON:518:1,2014-11-03T01:18:00Z,29.5150,-94.5133,1.337,1111122 
TCOON,ioos:station:TCOON:518:1,2014-11-03T02:18:00Z,29.5150,-94.5133,1.323,1111122 
TCOON,ioos:station:TCOON:518:1,2014-11-03T03:12:00Z,29.5150,-94.5133,1.303,1111122 
TCOON,ioos:station:TCOON:518:1,2014-11-03T04:18:00Z,29.5150,-94.5133,1.304,1111122 
TCOON,ioos:station:TCOON:518:1,2014-11-03T05:12:00Z,29.5150,-94.5133,1.319,1111122 
TCOON,ioos:station:TCOON:518:1,2014-11-03T06:18:00Z,29.5150,-94.5133,1.367,1111122 
TCOON,ioos:station:TCOON:518:1,2014-11-03T07:12:00Z,29.5150,-94.5133,1.435,1111122 
TCOON,ioos:station:TCOON:518:1,2014-11-03T08:12:00Z,29.5150,-94.5133,1.503,1111122 
TCOON,ioos:station:TCOON:518:1,2014-11-03T09:12:00Z,29.5150,-94.5133,1.511,1111122 
TCOON,ioos:station:TCOON:518:1,2014-11-03T10:12:00Z,29.5150,-94.5133,1.53,1111122 
TCOON,ioos:station:TCOON:518:1,2014-11-03T11:30:00Z,29.5150,-94.5133,1.493,1111122 
TCOON,ioos:station:TCOON:518:1,2014-11-03T12:12:00Z,29.5150,-94.5133,1.491,1111122 
TCOON,ioos:station:TCOON:518:1,2014-11-03T13:18:00Z,29.5150,-94.5133,1.453,1111122 
TCOON,ioos:station:TCOON:518:1,2014-11-03T14:12:00Z,29.5150,-94.5133,1.41,1111122 
TCOON,ioos:station:TCOON:518:1,2014-11-03T15:12:00Z,29.5150,-94.5133,1.376,1111122 
TCOON,ioos:station:TCOON:518:1,2014-11-03T16:12:00Z,29.5150,-94.5133,1.34,1111122 
TCOON,ioos:station:TCOON:518:1,2014-11-03T17:12:00Z,29.5150,-94.5133,1.333,1111122 
TCOON,ioos:station:TCOON:518:1,2014-11-03T18:12:00Z,29.5150,-94.5133,1.36,1111122 
TCOON,ioos:station:TCOON:518:1,2014-11-03T19:12:00Z,29.5150,-94.5133,1.37,1111122 
TCOON,ioos:station:TCOON:518:1,2014-11-03T20:12:00Z,29.5150,-94.5133,1.421,1111122 
TCOON,ioos:station:TCOON:518:1,2014-11-03T21:18:00Z,29.5150,-94.5133,1.467,1111122 
TCOON,ioos:station:TCOON:518:1,2014-11-03T22:54:00Z,29.5150,-94.5133,1.502,1111122 
TCOON,ioos:station:TCOON:518:1,2014-11-03T23:12:00Z,29.5150,-94.5133,1.476,1111122 
TCOON,ioos:station:TCOON:518:1,2014-11-04T00:12:00Z,29.5150,-94.5133,1.518,1111122 
TCOON,ioos:station:TCOON:518:1,2014-11-04T01:12:00Z,29.5150,-94.5133,1.508,1111122 
TCOON,ioos:station:TCOON:518:1,2014-11-04T02:12:00Z,29.5150,-94.5133,1.497,1111122 
TCOON,ioos:station:TCOON:518:1,2014-11-04T03:12:00Z,29.5150,-94.5133,1.451,1111122 
TCOON,ioos:station:TCOON:518:1,2014-11-04T04:12:00Z,29.5150,-94.5133,1.415,1111122 
TCOON,ioos:station:TCOON:518:1,2014-11-04T05:12:00Z,29.5150,-94.5133,1.401,1111122 
TCOON,ioos:station:TCOON:518:1,2014-11-04T06:18:00Z,29.5150,-94.5133,1.441,1111122 
TCOON,ioos:station:TCOON:518:1,2014-11-04T07:18:00Z,29.5150,-94.5133,1.491,1111122 
TCOON,ioos:station:TCOON:518:1,2014-11-04T08:18:00Z,29.5150,-94.5133,1.564,1111122 
TCOON,ioos:station:TCOON:518:1,2014-11-04T09:12:00Z,29.5150,-94.5133,1.617,1111122 
TCOON,ioos:station:TCOON:518:1,2014-11-04T10:12:00Z,29.5150,-94.5133,1.606,1111122 
TCOON,ioos:station:TCOON:518:1,2014-11-04T11:12:00Z,29.5150,-94.5133,1.604,1111122 
TCOON,ioos:station:TCOON:518:1,2014-11-04T12:12:00Z,29.5150,-94.5133,1.563,1111122 
TCOON,ioos:station:TCOON:518:1,2014-11-04T13:12:00Z,29.5150,-94.5133,1.551,1111122 
TCOON,ioos:station:TCOON:518:1,2014-11-04T14:12:00Z,29.5150,-94.5133,1.487,1111122 
TCOON,ioos:station:TCOON:518:1,2014-11-04T15:12:00Z,29.5150,-94.5133,1.454,1111122 
TCOON,ioos:station:TCOON:518:1,2014-11-04T16:36:00Z,29.5150,-94.5133,1.398,1111122 
TCOON,ioos:station:TCOON:518:1,2014-11-04T17:18:00Z,29.5150,-94.5133,1.366,1111122 
TCOON,ioos:station:TCOON:518:1,2014-11-04T18:18:00Z,29.5150,-94.5133,1.361,1111122 
TCOON,ioos:station:TCOON:518:1,2014-11-04T19:18:00Z,29.5150,-94.5133,1.402,1111122 
TCOON,ioos:station:TCOON:518:1,2014-11-04T20:18:00Z,29.5150,-94.5133,1.468,1111122 
TCOON,ioos:station:TCOON:518:1,2014-11-04T21:18:00Z,29.5150,-94.5133,1.546,1111122 
TCOON,ioos:station:TCOON:518:1,2014-11-04T22:42:00Z,29.5150,-94.5133,1.607,1111122 
TCOON,ioos:station:TCOON:518:1,2014-11-04T23:12:00Z,29.5150,-94.5133,1.609,1111122 
TCOON,ioos:station:TCOON:518:1,2014-11-05T00:18:00Z,29.5150,-94.5133,1.621,1111122 
TCOON,ioos:station:TCOON:518:1,2014-11-05T01:18:00Z,29.5150,-94.5133,1.614,1111122 
TCOON,ioos:station:TCOON:518:1,2014-11-05T02:12:00Z,29.5150,-94.5133,1.594,1111122 
TCOON,ioos:station:TCOON:518:1,2014-11-05T03:12:00Z,29.5150,-94.5133,1.548,1111122 
TCOON,ioos:station:TCOON:518:1,2014-11-05T04:24:00Z,29.5150,-94.5133,1.532,1111122 
TCOON,ioos:station:TCOON:518:1,2014-11-05T05:12:00Z,29.5150,-94.5133,1.512,1111122 
TCOON,ioos:station:TCOON:518:1,2014-11-05T06:24:00Z,29.5150,-94.5133,1.497,1111122 
TCOON,ioos:station:TCOON:518:1,2014-11-05T07:12:00Z,29.5150,-94.5133,1.517,1111122 
TCOON,ioos:station:TCOON:518:1,2014-11-05T08:12:00Z,29.5150,-94.5133,1.539,1111122 
TCOON,ioos:station:TCOON:518:1,2014-11-05T09:12:00Z,29.5150,-94.5133,1.551,1111122 
TCOON,ioos:station:TCOON:518:1,2014-11-05T10:12:00Z,29.5150,-94.5133,1.58,1111122 
TCOON,ioos:station:TCOON:518:1,2014-11-05T11:18:00Z,29.5150,-94.5133,1.587,1111122 
TCOON,ioos:station:TCOON:518:1,2014-11-05T12:12:00Z,29.5150,-94.5133,1.53,1111122 
TCOON,ioos:station:TCOON:518:1,2014-11-05T13:12:00Z,29.5150,-94.5133,1.487,1111122 
TCOON,ioos:station:TCOON:518:1,2014-11-05T14:12:00Z,29.5150,-94.5133,1.424,1111122 
TCOON,ioos:station:TCOON:518:1,2014-11-05T15:12:00Z,29.5150,-94.5133,1.369,1111122 
TCOON,ioos:station:TCOON:518:1,2014-11-05T16:18:00Z,29.5150,-94.5133,1.327,1111122 
TCOON,ioos:station:TCOON:518:1,2014-11-05T17:36:00Z,29.5150,-94.5133,1.319,1111122 
TCOON,ioos:station:TCOON:518:1,2014-11-05T18:18:00Z,29.5150,-94.5133,1.324,1111122 
TCOON,ioos:station:TCOON:518:1,2014-11-05T19:12:00Z,29.5150,-94.5133,1.347,1111122 
TCOON,ioos:station:TCOON:518:1,2014-11-05T20:18:00Z,29.5150,-94.5133,1.406,1111122 
TCOON,ioos:station:TCOON:518:1,2014-11-05T21:12:00Z,29.5150,-94.5133,1.508,1111122 
TCOON,ioos:station:TCOON:518:1,2014-11-05T22:24:00Z,29.5150,-94.5133,1.581,1111122 
TCOON,ioos:station:TCOON:518:1,2014-11-05T23:12:00Z,29.5150,-94.5133,1.586,1111122 
TCOON,ioos:station:TCOON:518:1,2014-11-06T00:24:00Z,29.5150,-94.5133,1.712,1111122 
TCOON,ioos:station:TCOON:518:1,2014-11-06T01:24:00Z,29.5150,-94.5133,1.687,1111122 
TCOON,ioos:station:TCOON:518:1,2014-11-06T02:18:00Z,29.5150,-94.5133,1.585,1111122 
TCOON,ioos:station:TCOON:518:1,2014-11-06T03:12:00Z,29.5150,-94.5133,1.576,1111122 
TCOON,ioos:station:TCOON:518:1,2014-11-06T04:18:00Z,29.5150,-94.5133,1.531,1111122 
TCOON,ioos:station:TCOON:518:1,2014-11-06T05:12:00Z,29.5150,-94.5133,1.475,1111122 
TCOON,ioos:station:TCOON:518:1,2014-11-06T06:24:00Z,29.5150,-94.5133,1.451,1111122 
TCOON,ioos:station:TCOON:518:1,2014-11-06T07:12:00Z,29.5150,-94.5133,1.438,1111122 
TCOON,ioos:station:TCOON:518:1,2014-11-06T08:24:00Z,29.5150,-94.5133,1.427,1111122 
TCOON,ioos:station:TCOON:518:1,2014-11-06T09:12:00Z,29.5150,-94.5133,1.406,1111122 
TCOON,ioos:station:TCOON:518:1,2014-11-06T10:12:00Z,29.5150,-94.5133,1.406,1111122 
TCOON,ioos:station:TCOON:518:1,2014-11-06T11:12:00Z,29.5150,-94.5133,1.425,1111122 
TCOON,ioos:station:TCOON:518:1,2014-11-06T12:12:00Z,29.5150,-94.5133,1.416,1111122 
TCOON,ioos:station:TCOON:518:1,2014-11-06T13:24:00Z,29.5150,-94.5133,1.379,1111122 
TCOON,ioos:station:TCOON:518:1,2014-11-06T14:12:00Z,29.5150,-94.5133,1.312,1111122 
TCOON,ioos:station:TCOON:518:1,2014-11-06T15:12:00Z,29.5150,-94.5133,1.273,1111122 
TCOON,ioos:station:TCOON:518:1,2014-11-06T16:18:00Z,29.5150,-94.5133,1.196,1111122 
TCOON,ioos:station:TCOON:518:1,2014-11-06T17:12:00Z,29.5150,-94.5133,1.169,1111122 
TCOON,ioos:station:TCOON:518:1,2014-11-06T18:12:00Z,29.5150,-94.5133,1.152,1111122 
TCOON,ioos:station:TCOON:518:1,2014-11-06T19:18:00Z,29.5150,-94.5133,1.149,1111122 
TCOON,ioos:station:TCOON:518:1,2014-11-06T20:12:00Z,29.5150,-94.5133,1.194,1111122 
TCOON,ioos:station:TCOON:518:1,2014-11-06T21:12:00Z,29.5150,-94.5133,1.219,1111122 
TCOON,ioos:station:TCOON:518:1,2014-11-06T22:36:00Z,29.5150,-94.5133,1.366,1111122 
TCOON,ioos:station:TCOON:518:1,2014-11-06T23:12:00Z,29.5150,-94.5133,1.406,1111122 
TCOON,ioos:station:TCOON:518:1,2014-11-07T00:12:00Z,29.5150,-94.5133,1.42,1111122 
TCOON,ioos:station:TCOON:518:1,2014-11-07T01:18:00Z,29.5150,-94.5133,1.46,1111122 
TCOON,ioos:station:TCOON:518:1,2014-11-07T02:12:00Z,29.5150,-94.5133,1.491,1111122 
TCOON,ioos:station:TCOON:518:1,2014-11-07T03:12:00Z,29.5150,-94.5133,1.426,1111122 
TCOON,ioos:station:TCOON:518:1,2014-11-07T04:12:00Z,29.5150,-94.5133,1.456,1111122 
TCOON,ioos:station:TCOON:518:1,2014-11-07T05:12:00Z,29.5150,-94.5133,1.406,1111122 
TCOON,ioos:station:TCOON:518:1,2014-11-07T06:18:00Z,29.5150,-94.5133,1.384,1111122 
TCOON,ioos:station:TCOON:518:1,2014-11-07T07:12:00Z,29.5150,-94.5133,1.378,1111122 
TCOON,ioos:station:TCOON:518:1,2014-11-07T08:12:00Z,29.5150,-94.5133,1.366,1111122 
TCOON,ioos:station:TCOON:518:1,2014-11-07T09:12:00Z,29.5150,-94.5133,1.333,1111122 
TCOON,ioos:station:TCOON:518:1,2014-11-07T10:12:00Z,29.5150,-94.5133,1.378,1111122 
TCOON,ioos:station:TCOON:518:1,2014-11-07T11:12:00Z,29.5150,-94.5133,1.359,1111122 
TCOON,ioos:station:TCOON:518:1,2014-11-07T12:12:00Z,29.5150,-94.5133,1.293,1111122 
TCOON,ioos:station:TCOON:518:1,2014-11-07T13:12:00Z,29.5150,-94.5133,1.207,1111122 
TCOON,ioos:station:TCOON:518:1,2014-11-07T14:12:00Z,29.5150,-94.5133,1.078,1111122 
TCOON,ioos:station:TCOON:518:1,2014-11-07T15:18:00Z,29.5150,-94.5133,1.08,1111122 
TCOON,ioos:station:TCOON:518:1,2014-11-07T16:12:00Z,29.5150,-94.5133,1.062,1111122 
TCOON,ioos:station:TCOON:518:1,2014-11-07T17:12:00Z,29.5150,-94.5133,1.069,1111122 
TCOON,ioos:station:TCOON:518:1,2014-11-07T18:18:00Z,29.5150,-94.5133,1.098,1111122 
TCOON,ioos:station:TCOON:518:1,2014-11-07T19:12:00Z,29.5150,-94.5133,1.151,1111122 
TCOON,ioos:station:TCOON:518:1,2014-11-07T20:12:00Z,29.5150,-94.5133,1.197,1111122 
TCOON,ioos:station:TCOON:518:1,2014-11-07T21:18:00Z,29.5150,-94.5133,1.225,1111122 
TCOON,ioos:station:TCOON:518:1,2014-11-07T22:24:00Z,29.5150,-94.5133,1.352,1111122 
TCOON,ioos:station:TCOON:518:1,2014-11-07T23:12:00Z,29.5150,-94.5133,1.438,1111122 
TCOON,ioos:station:TCOON:518:1,2014-11-08T00:18:00Z,29.5150,-94.5133,1.514,1111122 
TCOON,ioos:station:TCOON:518:1,2014-11-08T01:18:00Z,29.5150,-94.5133,1.567,1111122 
TCOON,ioos:station:TCOON:518:1,2014-11-08T02:18:00Z,29.5150,-94.5133,1.605,1111122 
TCOON,ioos:station:TCOON:518:1,2014-11-08T03:12:00Z,29.5150,-94.5133,1.596,1111122 
TCOON,ioos:station:TCOON:518:1,2014-11-08T04:18:00Z,29.5150,-94.5133,1.644,1111122 
TCOON,ioos:station:TCOON:518:1,2014-11-08T05:12:00Z,29.5150,-94.5133,1.652,1111122 
TCOON,ioos:station:TCOON:518:1,2014-11-08T06:18:00Z,29.5150,-94.5133,1.633,1111122 
TCOON,ioos:station:TCOON:518:1,2014-11-08T07:12:00Z,29.5150,-94.5133,1.636,1111122 
TCOON,ioos:station:TCOON:518:1,2014-11-08T08:12:00Z,29.5150,-94.5133,1.631,1111122 
TCOON,ioos:station:TCOON:518:1,2014-11-08T09:12:00Z,29.5150,-94.5133,1.568,1111122 
TCOON,ioos:station:TCOON:518:1,2014-11-08T10:12:00Z,29.5150,-94.5133,1.579,1111122 
TCOON,ioos:station:TCOON:518:1,2014-11-08T11:18:00Z,29.5150,-94.5133,1.554,1111122 
TCOON,ioos:station:TCOON:518:1,2014-11-08T12:12:00Z,29.5150,-94.5133,1.528,1111122 
TCOON,ioos:station:TCOON:518:1,2014-11-08T13:12:00Z,29.5150,-94.5133,1.488,1111122 
TCOON,ioos:station:TCOON:518:1,2014-11-08T14:12:00Z,29.5150,-94.5133,1.432,1111122 
TCOON,ioos:station:TCOON:518:1,2014-11-08T15:12:00Z,29.5150,-94.5133,1.369,1111122 
TCOON,ioos:station:TCOON:518:1,2014-11-08T16:12:00Z,29.5150,-94.5133,1.312,1111122 
TCOON,ioos:station:TCOON:518:1,2014-11-08T17:24:00Z,29.5150,-94.5133,1.214,1111122 
TCOON,ioos:station:TCOON:518:1,2014-11-08T18:18:00Z,29.5150,-94.5133,1.194,1111122 
TCOON,ioos:station:TCOON:518:1,2014-11-08T19:12:00Z,29.5150,-94.5133,1.13,1111122 
TCOON,ioos:station:TCOON:518:1,2014-11-08T20:12:00Z,29.5150,-94.5133,1.138,1111122 
TCOON,ioos:station:TCOON:518:1,2014-11-08T21:12:00Z,29.5150,-94.5133,1.158,1111122 
TCOON,ioos:station:TCOON:518:1,2014-11-08T22:12:00Z,29.5150,-94.5133,1.222,1111122 
TCOON,ioos:station:TCOON:518:1,2014-11-08T23:12:00Z,29.5150,-94.5133,1.332,1111122 
TCOON,ioos:station:TCOON:518:1,2014-11-09T00:12:00Z,29.5150,-94.5133,1.428,1111122 
TCOON,ioos:station:TCOON:518:1,2014-11-09T01:12:00Z,29.5150,-94.5133,1.493,1111122 
TCOON,ioos:station:TCOON:518:1,2014-11-09T02:18:00Z,29.5150,-94.5133,1.525,1111122 
TCOON,ioos:station:TCOON:518:1,2014-11-09T03:12:00Z,29.5150,-94.5133,1.547,1111122 
TCOON,ioos:station:TCOON:518:1,2014-11-09T04:18:00Z,29.5150,-94.5133,1.582,1111122 
TCOON,ioos:station:TCOON:518:1,2014-11-09T05:12:00Z,29.5150,-94.5133,1.54,1111122 
TCOON,ioos:station:TCOON:518:1,2014-11-09T06:12:00Z,29.5150,-94.5133,1.561,1111122 
TCOON,ioos:station:TCOON:518:1,2014-11-09T07:12:00Z,29.5150,-94.5133,1.541,1111122 
TCOON,ioos:station:TCOON:518:1,2014-11-09T08:12:00Z,29.5150,-94.5133,1.456,1111122 
TCOON,ioos:station:TCOON:518:1,2014-11-09T09:12:00Z,29.5150,-94.5133,1.4,1111122 
TCOON,ioos:station:TCOON:518:1,2014-11-09T10:12:00Z,29.5150,-94.5133,1.386,1111122 
TCOON,ioos:station:TCOON:518:1,2014-11-09T11:12:00Z,29.5150,-94.5133,1.412,1111122 
TCOON,ioos:station:TCOON:518:1,2014-11-09T12:12:00Z,29.5150,-94.5133,1.413,1111122 
TCOON,ioos:station:TCOON:518:1,2014-11-09T13:12:00Z,29.5150,-94.5133,1.403,1111122 
TCOON,ioos:station:TCOON:518:1,2014-11-09T14:12:00Z,29.5150,-94.5133,1.359,1111122 
TCOON,ioos:station:TCOON:518:1,2014-11-09T15:12:00Z,29.5150,-94.5133,1.28,1111122 
TCOON,ioos:station:TCOON:518:1,2014-11-09T16:18:00Z,29.5150,-94.5133,1.202,1111122 
TCOON,ioos:station:TCOON:518:1,2014-11-09T17:12:00Z,29.5150,-94.5133,1.146,1111122 
TCOON,ioos:station:TCOON:518:1,2014-11-09T18:12:00Z,29.5150,-94.5133,1.101,1111122 
TCOON,ioos:station:TCOON:518:1,2014-11-09T19:12:00Z,29.5150,-94.5133,1.087,1111122 
TCOON,ioos:station:TCOON:518:1,2014-11-09T20:12:00Z,29.5150,-94.5133,1.117,1111122 
TCOON,ioos:station:TCOON:518:1,2014-11-09T21:12:00Z,29.5150,-94.5133,1.152,1111122 
TCOON,ioos:station:TCOON:518:1,2014-11-09T22:12:00Z,29.5150,-94.5133,1.199,1111122 
TCOON,ioos:station:TCOON:518:1,2014-11-09T23:12:00Z,29.5150,-94.5133,1.262,1111122 
TCOON,ioos:station:TCOON:518:1,2014-11-10T00:12:00Z,29.5150,-94.5133,1.343,1111122 
TCOON,ioos:station:TCOON:518:1,2014-11-10T01:12:00Z,29.5150,-94.5133,1.404,1111122 
TCOON,ioos:station:TCOON:518:1,2014-11-10T02:12:00Z,29.5150,-94.5133,1.465,1111122 
TCOON,ioos:station:TCOON:518:1,2014-11-10T03:12:00Z,29.5150,-94.5133,1.526,1111122 
TCOON,ioos:station:TCOON:518:1,2014-11-10T04:12:00Z,29.5150,-94.5133,1.547,1111122 
TCOON,ioos:station:TCOON:518:1,2014-11-10T05:12:00Z,29.5150,-94.5133,1.567,1111122 
TCOON,ioos:station:TCOON:518:1,2014-11-10T06:12:00Z,29.5150,-94.5133,1.564,1111122 
TCOON,ioos:station:TCOON:518:1,2014-11-10T07:12:00Z,29.5150,-94.5133,1.567,1111122 
TCOON,ioos:station:TCOON:518:1,2014-11-10T08:12:00Z,29.5150,-94.5133,1.593,1111122 
TCOON,ioos:station:TCOON:518:1,2014-11-10T09:12:00Z,29.5150,-94.5133,1.573,1111122 
TCOON,ioos:station:TCOON:518:1,2014-11-10T10:12:00Z,29.5150,-94.5133,1.542,1111122 
TCOON,ioos:station:TCOON:518:1,2014-11-10T11:12:00Z,29.5150,-94.5133,1.539,1111122 
TCOON,ioos:station:TCOON:518:1,2014-11-10T12:18:00Z,29.5150,-94.5133,1.52,1111122 
TCOON,ioos:station:TCOON:518:1,2014-11-10T13:12:00Z,29.5150,-94.5133,1.535,1111122 
TCOON,ioos:station:TCOON:518:1,2014-11-10T14:12:00Z,29.5150,-94.5133,1.503,1111122 
TCOON,ioos:station:TCOON:518:1,2014-11-10T15:30:00Z,29.5150,-94.5133,1.423,1111122 
TCOON,ioos:station:TCOON:518:1,2014-11-10T16:24:00Z,29.5150,-94.5133,1.379,1111122 
TCOON,ioos:station:TCOON:518:1,2014-11-10T17:12:00Z,29.5150,-94.5133,1.355,1111122 
TCOON,ioos:station:TCOON:518:1,2014-11-10T18:18:00Z,29.5150,-94.5133,1.306,1111122 
TCOON,ioos:station:TCOON:518:1,2014-11-10T19:18:00Z,29.5150,-94.5133,1.255,1111122 
TCOON,ioos:station:TCOON:518:1,2014-11-10T20:12:00Z,29.5150,-94.5133,1.218,1111122 
TCOON,ioos:station:TCOON:518:1,2014-11-10T21:12:00Z,29.5150,-94.5133,1.207,1111122 
TCOON,ioos:station:TCOON:518:1,2014-11-10T22:18:00Z,29.5150,-94.5133,1.238,1111122 
TCOON,ioos:station:TCOON:518:1,2014-11-10T23:18:00Z,29.5150,-94.5133,1.301,1111122 
TCOON,ioos:station:TCOON:518:1,2014-11-11T00:12:00Z,29.5150,-94.5133,1.385,1111122 
TCOON,ioos:station:TCOON:518:1,2014-11-11T01:18:00Z,29.5150,-94.5133,1.462,1111122 
TCOON,ioos:station:TCOON:518:1,2014-11-11T02:12:00Z,29.5150,-94.5133,1.517,1111122 
TCOON,ioos:station:TCOON:518:1,2014-11-11T03:12:00Z,29.5150,-94.5133,1.56,1111122 
TCOON,ioos:station:TCOON:518:1,2014-11-11T04:18:00Z,29.5150,-94.5133,1.605,1111122 
TCOON,ioos:station:TCOON:518:1,2014-11-11T05:12:00Z,29.5150,-94.5133,1.62,1111122 
TCOON,ioos:station:TCOON:518:1,2014-11-11T06:18:00Z,29.5150,-94.5133,1.644,1111122 
TCOON,ioos:station:TCOON:518:1,2014-11-11T07:12:00Z,29.5150,-94.5133,1.668,1111122 
TCOON,ioos:station:TCOON:518:1,2014-11-11T08:12:00Z,29.5150,-94.5133,1.672,1111122 
TCOON,ioos:station:TCOON:518:1,2014-11-11T09:12:00Z,29.5150,-94.5133,1.661,1111122 
TCOON,ioos:station:TCOON:518:1,2014-11-11T10:12:00Z,29.5150,-94.5133,1.649,1111122 
TCOON,ioos:station:TCOON:518:1,2014-11-11T11:12:00Z,29.5150,-94.5133,1.599,1111122 
TCOON,ioos:station:TCOON:518:1,2014-11-11T12:12:00Z,29.5150,-94.5133,1.547,1111122 
TCOON,ioos:station:TCOON:518:1,2014-11-11T13:12:00Z,29.5150,-94.5133,1.509,1111122 
TCOON,ioos:station:TCOON:518:1,2014-11-11T14:12:00Z,29.5150,-94.5133,1.502,1111122 
TCOON,ioos:station:TCOON:518:1,2014-11-11T15:12:00Z,29.5150,-94.5133,1.467,1111122 
TCOON,ioos:station:TCOON:518:1,2014-11-11T16:12:00Z,29.5150,-94.5133,1.389,1111122 
TCOON,ioos:station:TCOON:518:1,2014-11-11T17:18:00Z,29.5150,-94.5133,1.336,1111122 
TCOON,ioos:station:TCOON:518:1,2014-11-11T18:12:00Z,29.5150,-94.5133,1.294,1111122 
TCOON,ioos:station:TCOON:518:1,2014-11-11T19:18:00Z,29.5150,-94.5133,1.252,1111122 
TCOON,ioos:station:TCOON:518:1,2014-11-11T20:12:00Z,29.5150,-94.5133,1.317,1111122 
TCOON,ioos:station:TCOON:518:1,2014-11-11T21:12:00Z,29.5150,-94.5133,1.279,1111122 
TCOON,ioos:station:TCOON:518:1,2014-11-11T22:48:00Z,29.5150,-94.5133,1.212,1111122 
TCOON,ioos:station:TCOON:518:1,2014-11-11T23:12:00Z,29.5150,-94.5133,1.198,1111122 
TCOON,ioos:station:TCOON:518:1,2014-11-12T00:12:00Z,29.5150,-94.5133,1.173,1111122 
TCOON,ioos:station:TCOON:518:1,2014-11-12T01:18:00Z,29.5150,-94.5133,1.211,1111122 
TCOON,ioos:station:TCOON:518:1,2014-11-12T02:12:00Z,29.5150,-94.5133,1.23,1111122 
TCOON,ioos:station:TCOON:518:1,2014-11-12T03:12:00Z,29.5150,-94.5133,1.209,1111122 
TCOON,ioos:station:TCOON:518:1,2014-11-12T23:12:00Z,29.5150,-94.5133,1.051,1111122 
TCOON,ioos:station:TCOON:518:1,2014-11-13T18:36:00Z,29.5150,-94.5133,1.005,1111122 
TCOON,ioos:station:TCOON:518:1,2014-11-13T19:12:00Z,29.5150,-94.5133,0.994,1111122 
TCOON,ioos:station:TCOON:518:1,2014-11-13T20:12:00Z,29.5150,-94.5133,1.001,1111122 
TCOON,ioos:station:TCOON:518:1,2014-11-13T21:18:00Z,29.5150,-94.5133,0.993,1111122 
TCOON,ioos:station:TCOON:518:1,2014-11-13T22:24:00Z,29.5150,-94.5133,1.004,1111122 
TCOON,ioos:station:TCOON:518:1,2014-11-14T00:12:00Z,29.5150,-94.5133,0.975,1111122 
TCOON,ioos:station:TCOON:518:1,2014-11-14T01:12:00Z,29.5150,-94.5133,0.991,1111122 
TCOON,ioos:station:TCOON:518:1,2014-11-14T16:42:00Z,29.5150,-94.5133,1.154,1111122 
TCOON,ioos:station:TCOON:518:1,2014-11-14T17:12:00Z,29.5150,-94.5133,1.16,1111122 
TCOON,ioos:station:TCOON:518:1,2014-11-14T18:12:00Z,29.5150,-94.5133,1.19,1111122 
TCOON,ioos:station:TCOON:518:1,2014-11-14T19:12:00Z,29.5150,-94.5133,1.22,1111122 
TCOON,ioos:station:TCOON:518:1,2014-11-14T20:12:00Z,29.5150,-94.5133,1.269,1111122 
TCOON,ioos:station:TCOON:518:1,2014-11-14T21:12:00Z,29.5150,-94.5133,1.308,1111122 
TCOON,ioos:station:TCOON:518:1,2014-11-14T22:18:00Z,29.5150,-94.5133,1.339,1111122 
TCOON,ioos:station:TCOON:518:1,2014-11-14T23:12:00Z,29.5150,-94.5133,1.3,1111122 
TCOON,ioos:station:TCOON:518:1,2014-11-15T00:18:00Z,29.5150,-94.5133,1.287,1111122 